When you browse on this site, cookies collect data to enhance your experience and personalize the content and advertising you see.
Visit our Privacy Policy to learn more. By continuing to use the site, you agree to this use of cookies and data.
  • In Hungary
  • List of Countries
  • For 7 days
  • Water Temperature
  • Weather Map
  • News
  • Weather Widgets
  • user-avatar
    Login

    Hourly Weather Malynivka

    Today, 13 November, Wednesday

    Time Temperature Precipitation Wind Pressure Humidity
    00:00 +8°C° 0 mm 4 mps 756 mmHg 90%
    01:00 +9°C° 0 mm 3 mps 756 mmHg 91%
    02:00 +9°C° 0 mm 3 mps 756 mmHg 91%
    03:00 +8°C° 0 mm 4 mps 756 mmHg 92%
    04:00 +8°C° 0 mm 4 mps 755 mmHg 93%
    05:00 +8°C° 0 mm 4 mps 755 mmHg 93%
    06:00 +8°C° 0 mm 4 mps 755 mmHg 91%
    07:00 +8°C° 0 mm 5 mps 755 mmHg 89%
    08:00 +9°C° 0 mm 5 mps 755 mmHg 86%
    09:00 +10°C° 0 mm 5 mps 755 mmHg 76%
    10:00 +13°C° 0 mm 6 mps 755 mmHg 66%
    11:00 +15°C° 0 mm 6 mps 755 mmHg 56%
    12:00 +15°C° 0 mm 6 mps 755 mmHg 54%
    13:00 +16°C° 0 mm 6 mps 754 mmHg 51%
    14:00 +17°C° 0 mm 7 mps 754 mmHg 48%
    15:00 +15°C° 0 mm 6 mps 754 mmHg 52%
    16:00 +14°C° 0 mm 5 mps 754 mmHg 57%
    17:00 +13°C° 0 mm 4 mps 754 mmHg 61%
    18:00 +12°C° 0 mm 4 mps 754 mmHg 64%
    19:00 +10°C° 0 mm 5 mps 754 mmHg 66%
    20:00 +10°C° 0 mm 5 mps 754 mmHg 69%
    21:00 +9°C° 0 mm 5 mps 754 mmHg 70%
    22:00 +9°C° 0 mm 5 mps 754 mmHg 71%
    23:00 +9°C° 0 mm 6 mps 754 mmHg 72%

    Tomorrow, 14 November, Thursday

    Time Temperature Precipitation Wind Pressure Humidity
    00:00 +8°C° 0 mm 6 mps 754 mmHg 74%
    01:00 +8°C° 0 mm 6 mps 754 mmHg 76%
    02:00 +7°C° 0 mm 5 mps 754 mmHg 78%
    03:00 +7°C° 0 mm 5 mps 754 mmHg 79%
    04:00 +6°C° 0 mm 5 mps 753 mmHg 81%
    05:00 +6°C° 0 mm 5 mps 753 mmHg 82%
    06:00 +5°C° 0 mm 6 mps 753 mmHg 81%
    07:00 +5°C° 0 mm 6 mps 753 mmHg 79%
    08:00 +5°C° 0 mm 7 mps 754 mmHg 78%
    09:00 +8°C° 0 mm 7 mps 753 mmHg 69%
    10:00 +9°C° 0 mm 7 mps 753 mmHg 61%
    11:00 +10°C° 0 mm 8 mps 753 mmHg 52%
    12:00 +11°C° 0 mm 8 mps 753 mmHg 48%
    13:00 +12°C° 0 mm 7 mps 753 mmHg 43%
    14:00 +12°C° 0 mm 7 mps 753 mmHg 38%
    15:00 +11°C° 0 mm 7 mps 753 mmHg 39%
    16:00 +10°C° 0 mm 6 mps 753 mmHg 40%
    17:00 +9°C° 0 mm 5 mps 753 mmHg 41%
    18:00 +8°C° 0 mm 5 mps 753 mmHg 44%
    19:00 +8°C° 0 mm 6 mps 753 mmHg 47%
    20:00 +7°C° 0 mm 6 mps 753 mmHg 50%
    21:00 +7°C° 0 mm 6 mps 753 mmHg 53%
    22:00 +5°C° 0 mm 6 mps 753 mmHg 55%
    23:00 +6°C° 0 mm 5 mps 753 mmHg 58%

    Day after tomorrow, 15 November, Friday

    Time Temperature Precipitation Wind Pressure Humidity
    00:00 +5°C° 0 mm 5 mps 754 mmHg 60%
    01:00 +5°C° 0 mm 5 mps 754 mmHg 61%
    02:00 +5°C° 0 mm 5 mps 754 mmHg 63%
    03:00 +3°C° 0 mm 5 mps 754 mmHg 64%
    04:00 +3°C° 0 mm 5 mps 754 mmHg 65%
    05:00 +3°C° 0 mm 5 mps 754 mmHg 66%
    06:00 +3°C° 0 mm 5 mps 754 mmHg 65%
    07:00 +3°C° 0 mm 5 mps 754 mmHg 65%
    08:00 +3°C° 0 mm 5 mps 754 mmHg 64%
    09:00 +4°C° 0 mm 6 mps 754 mmHg 61%
    10:00 +5°C° 0 mm 6 mps 754 mmHg 57%
    11:00 +7°C° 0 mm 6 mps 755 mmHg 52%
    12:00 +8°C° 0 mm 6 mps 755 mmHg 51%
    13:00 +9°C° 0 mm 6 mps 755 mmHg 51%
    14:00 +10°C° 0 mm 5 mps 755 mmHg 50%
    15:00 +9°C° 0 mm 5 mps 755 mmHg 53%
    16:00 +8°C° 0 mm 4 mps 755 mmHg 57%
    17:00 +8°C° 0 mm 3 mps 755 mmHg 61%
    18:00 +7°C° 0 mm 3 mps 755 mmHg 62%
    19:00 +6°C° 0 mm 4 mps 755 mmHg 64%
    20:00 +5°C° 0 mm 4 mps 756 mmHg 65%
    21:00 +5°C° 0 mm 4 mps 756 mmHg 66%
    22:00 +5°C° 0 mm 4 mps 756 mmHg 68%
    23:00 +4°C° 0 mm 4 mps 756 mmHg 69%

    16 November, Saturday

    Time Temperature Precipitation Wind Pressure Humidity
    00:00 +4°C° 0 mm 4 mps 756 mmHg 71%
    01:00 +4°C° 0 mm 4 mps 757 mmHg 72%
    02:00 +3°C° 0 mm 4 mps 757 mmHg 73%
    03:00 +3°C° 0 mm 4 mps 757 mmHg 76%
    04:00 +3°C° 0 mm 4 mps 757 mmHg 78%
    05:00 +1°C° 0 mm 4 mps 757 mmHg 80%
    06:00 +1°C° 0 mm 4 mps 757 mmHg 79%
    07:00 +1°C° 0 mm 4 mps 757 mmHg 78%
    08:00 +1°C° 0 mm 4 mps 758 mmHg 77%
    09:00 +2°C° 0 mm 5 mps 758 mmHg 71%
    10:00 +5°C° 0 mm 5 mps 758 mmHg 65%
    11:00 +6°C° 0 mm 5 mps 758 mmHg 59%
    12:00 +6°C° 0 mm 5 mps 758 mmHg 56%
    13:00 +7°C° 0 mm 5 mps 757 mmHg 54%
    14:00 +8°C° 0 mm 5 mps 757 mmHg 52%
    15:00 +7°C° 0 mm 4 mps 757 mmHg 56%
    16:00 +6°C° 0 mm 4 mps 757 mmHg 60%
    17:00 +5°C° 0 mm 3 mps 758 mmHg 65%
    18:00 +5°C° 0 mm 3 mps 758 mmHg 66%
    19:00 +4°C° 0 mm 4 mps 758 mmHg 67%
    20:00 +4°C° 0 mm 4 mps 758 mmHg 68%
    21:00 +4°C° 0 mm 4 mps 758 mmHg 69%
    22:00 +3°C° 0 mm 4 mps 758 mmHg 70%
    23:00 +3°C° 0 mm 4 mps 758 mmHg 71%

    17 November, Sunday

    Time Temperature Precipitation Wind Pressure Humidity
    00:00 +3°C° 0 mm 4 mps 758 mmHg 73%
    01:00 +1°C° 0 mm 4 mps 758 mmHg 74%
    02:00 +1°C° 0 mm 4 mps 758 mmHg 75%
    03:00 +1°C° 0 mm 4 mps 758 mmHg 77%
    04:00 0°C° 0 mm 4 mps 759 mmHg 79%
    05:00 0°C° 0 mm 5 mps 759 mmHg 81%
    06:00 0°C° 0 mm 5 mps 759 mmHg 83%
    07:00 0°C° 0 mm 5 mps 759 mmHg 84%
    08:00 0°C° 0 mm 5 mps 759 mmHg 85%
    09:00 +2°C° 0 mm 5 mps 759 mmHg 81%
    10:00 +3°C° 0 mm 6 mps 759 mmHg 76%
    11:00 +4°C° 0 mm 6 mps 759 mmHg 71%
    12:00 +6°C° 0 mm 5 mps 759 mmHg 68%
    13:00 +7°C° 0 mm 5 mps 759 mmHg 64%
    14:00 +8°C° 0 mm 5 mps 759 mmHg 61%
    15:00 +7°C° 0 mm 4 mps 759 mmHg 65%
    16:00 +6°C° 0 mm 4 mps 759 mmHg 69%
    17:00 +5°C° 0 mm 4 mps 759 mmHg 74%
    18:00 +5°C° 0 mm 4 mps 759 mmHg 74%
    19:00 +5°C° 0 mm 4 mps 759 mmHg 74%
    20:00 +3°C° 0 mm 5 mps 759 mmHg 74%
    21:00 +3°C° 0 mm 5 mps 759 mmHg 76%
    22:00 +3°C° 0 mm 5 mps 759 mmHg 77%
    23:00 +4°C° 0 mm 4 mps 759 mmHg 78%

    18 November, Monday

    Time Temperature Precipitation Wind Pressure Humidity
    00:00 +3°C° 0 mm 4 mps 759 mmHg 82%
    01:00 +3°C° 0 mm 4 mps 759 mmHg 85%
    02:00 +3°C° 0 mm 4 mps 758 mmHg 89%
    03:00 +1°C° 0 mm 4 mps 758 mmHg 89%
    04:00 +2°C° 0 mm 3 mps 758 mmHg 90%
    05:00 +2°C° 0 mm 3 mps 758 mmHg 90%
    06:00 +1°C° 0 mm 4 mps 758 mmHg 88%
    07:00 +1°C° 0 mm 4 mps 758 mmHg 85%
    08:00 +3°C° 0 mm 4 mps 758 mmHg 83%
    09:00 +4°C° 0 mm 4 mps 758 mmHg 72%
    10:00 +6°C° 0 mm 5 mps 758 mmHg 61%
    11:00 +8°C° 0 mm 5 mps 758 mmHg 50%
    12:00 +9°C° 0 mm 5 mps 758 mmHg 46%
    13:00 +10°C° 0 mm 5 mps 757 mmHg 42%
    14:00 +10°C° 0 mm 5 mps 757 mmHg 38%
    15:00 +10°C° 0 mm 4 mps 757 mmHg 40%
    16:00 +7°C° 0 mm 4 mps 757 mmHg 43%
    17:00 +6°C° 0 mm 4 mps 757 mmHg 45%
    18:00 +5°C° 0 mm 4 mps 757 mmHg 46%
    19:00 +5°C° 0 mm 4 mps 757 mmHg 46%
    20:00 +4°C° 0 mm 4 mps 757 mmHg 46%
    21:00 +4°C° 0 mm 4 mps 757 mmHg 46%
    22:00 +3°C° 0 mm 4 mps 757 mmHg 47%
    23:00 +3°C° 0 mm 3 mps 757 mmHg 48%
    Show more